Time,TemperatureF,DewpointF,PressureIn,WindDirection,WindDirectionDegrees,WindSpeedMPH,WindSpeedGustMPH,Humidity,HourlyPrecipIn,Conditions,Clouds,dailyrainin,SoftwareType,DateUTC
2013-07-15 06:57:00,44.0,42.4,29.92,NW,315,0.0,0.0,94,0.00,,---,0.00,VWS V14.01,2013-07-15 12:57:00,
2013-07-15 06:58:00,44.2,42.6,29.92,NW,324,3.0,3.0,94,0.00,,---,0.00,VWS V14.01,2013-07-15 12:58:00,
2013-07-15 07:03:00,44.5,43.2,29.92,NW,325,0.0,0.0,95,0.00,,---,0.00,VWS V14.01,2013-07-15 13:03:00,
2013-07-15 07:08:00,44.7,43.4,29.92,NW,325,1.0,1.0,95,0.00,,---,0.00,VWS V14.01,2013-07-15 13:08:00,
2013-07-15 07:13:00,44.9,43.6,29.91,NW,324,0.0,0.0,95,0.00,,---,0.00,VWS V14.01,2013-07-15 13:13:00,
2013-07-15 07:18:00,45.2,43.9,29.92,NW,324,3.0,5.0,95,0.00,,---,0.00,VWS V14.01,2013-07-15 13:18:00,
2013-07-15 07:23:00,45.1,43.5,29.92,NW,325,0.0,0.0,94,0.00,,---,0.00,VWS V14.01,2013-07-15 13:23:00,
2013-07-15 07:29:00,45.2,43.9,29.92,NW,324,0.0,0.0,95,0.00,,---,0.00,VWS V14.01,2013-07-15 13:29:00,
2013-07-15 07:34:00,45.2,43.9,29.92,NW,325,0.0,0.0,95,0.00,,---,0.00,VWS V14.01,2013-07-15 13:34:00,
2013-07-15 07:39:00,45.4,44.0,29.92,NW,325,0.0,0.0,95,0.00,,---,0.00,VWS V14.01,2013-07-15 13:39:00,
2013-07-15 07:44:00,45.6,44.2,29.92,NW,325,1.0,2.0,95,0.00,,---,0.00,VWS V14.01,2013-07-15 13:44:00,
2013-07-15 07:49:00,46.0,44.7,29.92,NW,324,1.0,1.0,95,0.00,,---,0.00,VWS V14.01,2013-07-15 13:49:00,
2013-07-15 07:54:00,46.3,45.0,29.92,NW,325,3.0,3.0,95,0.00,,---,0.00,VWS V14.01,2013-07-15 13:54:00,
2013-07-15 07:59:00,46.6,45.5,29.92,NW,324,3.0,3.0,96,0.00,,---,0.00,VWS V14.01,2013-07-15 13:59:00,
2013-07-15 08:04:00,47.8,46.7,29.92,NW,324,0.0,0.0,96,0.00,,---,0.00,VWS V14.01,2013-07-15 14:04:00,
2013-07-15 08:09:00,48.9,47.8,29.91,NW,325,0.0,3.0,96,0.00,,---,0.00,VWS V14.01,2013-07-15 14:09:00,
2013-07-15 08:14:00,50.0,48.9,29.91,NW,325,0.0,0.0,96,0.00,,---,0.00,VWS V14.01,2013-07-15 14:14:00,
2013-07-15 08:19:00,51.0,48.8,29.91,NW,325,0.0,0.0,92,0.00,,---,0.00,VWS V14.01,2013-07-15 14:19:00,
2013-07-15 08:24:00,52.5,49.4,29.91,NW,325,0.0,0.0,89,0.00,,---,0.00,VWS V14.01,2013-07-15 14:24:00,
2013-07-15 08:29:00,53.6,49.8,29.91,NW,324,0.0,2.0,87,0.00,,---,0.00,VWS V14.01,2013-07-15 14:29:00,
2013-07-15 08:34:00,54.2,49.8,29.91,NW,325,0.0,0.0,85,0.00,,---,0.00,VWS V14.01,2013-07-15 14:34:00,
2013-07-15 08:39:00,54.4,49.7,29.90,NW,325,0.0,0.0,84,0.00,,---,0.00,VWS V14.01,2013-07-15 14:39:00,
2013-07-15 08:44:00,54.6,49.9,29.90,NW,325,1.0,1.0,84,0.00,,---,0.00,VWS V14.01,2013-07-15 14:44:00,
2013-07-15 08:49:00,54.7,49.7,29.90,NW,325,0.0,0.0,83,0.00,,---,0.00,VWS V14.01,2013-07-15 14:49:00,
2013-07-15 08:54:00,55.0,50.3,29.90,NW,325,0.0,0.0,84,0.00,,---,0.00,VWS V14.01,2013-07-15 14:54:00,
2013-07-15 08:59:00,55.3,50.2,29.90,NW,325,0.0,0.0,83,0.00,,---,0.00,VWS V14.01,2013-07-15 14:59:00,
2013-07-15 09:04:00,56.6,52.5,29.89,NW,325,0.0,0.0,86,0.00,,---,0.00,VWS V14.01,2013-07-15 15:04:00,
2013-07-15 09:09:00,56.9,51.1,29.89,NW,325,0.0,0.0,81,0.00,,---,0.00,VWS V14.01,2013-07-15 15:09:00,
2013-07-15 09:14:00,58.1,52.3,29.89,NW,325,0.0,0.0,81,0.00,,---,0.00,VWS V14.01,2013-07-15 15:14:00,
2013-07-15 09:20:00,58.3,51.8,29.89,NW,325,0.0,0.0,79,0.00,,---,0.00,VWS V14.01,2013-07-15 15:20:00,
2013-07-15 09:25:00,59.2,51.3,29.89,NW,325,0.0,0.0,75,0.00,,---,0.00,VWS V14.01,2013-07-15 15:25:00,
2013-07-15 09:30:00,60.2,51.2,29.88,NW,325,0.0,0.0,72,0.00,,---,0.00,VWS V14.01,2013-07-15 15:30:00,
2013-07-15 09:35:00,61.3,51.5,29.88,NW,325,0.0,0.0,70,0.00,,---,0.00,VWS V14.01,2013-07-15 15:35:00,
2013-07-15 09:40:00,62.0,51.3,29.88,NW,325,0.0,0.0,68,0.00,,---,0.00,VWS V14.01,2013-07-15 15:40:00,
2013-07-15 09:45:00,62.8,52.9,29.88,NW,325,0.0,0.0,70,0.00,,---,0.00,VWS V14.01,2013-07-15 15:45:00,
2013-07-15 09:50:00,63.2,50.8,29.88,NW,325,0.0,1.0,64,0.00,,---,0.00,VWS V14.01,2013-07-15 15:50:00,
2013-07-15 09:55:00,62.8,50.0,29.87,NW,325,0.0,1.0,63,0.00,,---,0.00,VWS V14.01,2013-07-15 15:55:00,
2013-07-15 10:00:00,63.2,48.7,29.87,NW,325,0.0,0.0,59,0.00,,---,0.00,VWS V14.01,2013-07-15 16:00:00,
2013-07-15 10:05:00,64.3,51.0,29.87,NW,325,0.0,1.0,62,0.00,,---,0.00,VWS V14.01,2013-07-15 16:05:00,
2013-07-15 10:11:00,65.2,49.6,29.87,NW,325,0.0,2.0,57,0.00,,---,0.00,VWS V14.01,2013-07-15 16:11:00,
2013-07-15 10:16:00,64.7,49.1,29.87,NW,325,0.0,3.0,57,0.00,,---,0.00,VWS V14.01,2013-07-15 16:16:00,
2013-07-15 10:21:00,64.8,48.8,29.87,NW,325,2.0,2.0,56,0.00,,---,0.00,VWS V14.01,2013-07-15 16:21:00,
2013-07-15 10:26:00,64.7,47.7,29.86,NW,325,1.0,1.0,54,0.00,,---,0.00,VWS V14.01,2013-07-15 16:26:00,
2013-07-15 10:31:00,65.2,49.1,29.86,East,84,6.0,6.0,56,0.00,,---,0.00,VWS V14.01,2013-07-15 16:31:00,
2013-07-15 10:36:00,65.5,49.4,29.86,ENE,68,0.0,5.0,56,0.00,,---,0.00,VWS V14.01,2013-07-15 16:36:00,
2013-07-15 10:41:00,65.7,50.1,29.86,ENE,67,0.0,1.0,57,0.00,,---,0.00,VWS V14.01,2013-07-15 16:41:00,
2013-07-15 10:46:00,66.8,49.1,29.86,East,97,5.0,6.0,53,0.00,,---,0.00,VWS V14.01,2013-07-15 16:46:00,
2013-07-15 10:51:00,66.6,49.5,29.86,SE,127,5.0,6.0,54,0.00,,---,0.00,VWS V14.01,2013-07-15 16:51:00,
2013-07-15 10:56:00,66.4,49.8,29.86,SE,130,5.0,7.0,55,0.00,,---,0.00,VWS V14.01,2013-07-15 16:56:00,
2013-07-15 11:01:00,66.7,49.0,29.86,SE,124,4.0,4.0,53,0.00,,---,0.00,VWS V14.01,2013-07-15 17:01:00,
2013-07-15 11:07:00,66.8,50.1,29.86,SE,128,3.0,5.0,55,0.00,,---,0.00,VWS V14.01,2013-07-15 17:07:00,
2013-07-15 11:12:00,66.8,50.6,29.86,SE,131,7.0,7.0,56,0.00,,---,0.00,VWS V14.01,2013-07-15 17:12:00,
2013-07-15 11:17:00,66.6,50.9,29.85,SE,136,7.0,8.0,57,0.00,,---,0.00,VWS V14.01,2013-07-15 17:17:00,
2013-07-15 11:22:00,66.3,51.6,29.85,SE,137,5.0,5.0,59,0.00,,---,0.00,VWS V14.01,2013-07-15 17:22:00,
2013-07-15 11:27:00,67.3,52.0,29.85,East,101,5.0,7.0,58,0.00,,---,0.00,VWS V14.01,2013-07-15 17:27:00,
2013-07-15 11:32:00,67.3,50.1,29.85,SSE,165,5.0,6.0,54,0.00,,---,0.00,VWS V14.01,2013-07-15 17:32:00,
2013-07-15 11:37:00,67.0,49.8,29.85,SSE,150,4.0,6.0,54,0.00,,---,0.00,VWS V14.01,2013-07-15 17:37:00,
2013-07-15 11:42:00,66.8,49.6,29.85,SE,136,2.0,2.0,54,0.00,,---,0.00,VWS V14.01,2013-07-15 17:42:00,
2013-07-15 11:47:00,66.5,49.4,29.85,SE,136,0.0,0.0,54,0.00,,---,0.00,VWS V14.01,2013-07-15 17:47:00,
2013-07-15 11:52:00,66.7,51.9,29.85,South,172,4.0,4.0,59,0.00,,---,0.00,VWS V14.01,2013-07-15 17:52:00,
2013-07-15 11:58:00,66.8,49.1,29.84,SSE,152,0.0,1.0,53,0.00,,---,0.00,VWS V14.01,2013-07-15 17:58:00,
2013-07-15 12:03:00,66.8,49.6,29.85,SSE,152,4.0,4.0,54,0.00,,---,0.00,VWS V14.01,2013-07-15 18:03:00,
2013-07-15 12:08:00,66.9,51.7,29.84,ESE,118,7.0,7.0,58,0.00,,---,0.00,VWS V14.01,2013-07-15 18:08:00,
2013-07-15 12:13:00,66.7,51.0,29.84,SE,131,1.0,2.0,57,0.00,,---,0.00,VWS V14.01,2013-07-15 18:13:00,
2013-07-15 12:18:00,66.6,52.3,29.84,SE,131,4.0,5.0,60,0.00,,---,0.00,VWS V14.01,2013-07-15 18:18:00,
2013-07-15 12:24:00,66.5,50.3,29.84,SE,131,0.0,3.0,56,0.00,,---,0.00,VWS V14.01,2013-07-15 18:24:00,
2013-07-15 12:29:00,66.4,50.7,29.83,SE,131,0.0,0.0,57,0.00,,---,0.00,VWS V14.01,2013-07-15 18:29:00,
2013-07-15 12:34:00,66.4,49.8,29.83,SE,131,0.0,0.0,55,0.00,,---,0.00,VWS V14.01,2013-07-15 18:34:00,
2013-07-15 12:39:00,66.6,49.0,29.83,SE,131,0.0,0.0,53,0.00,,---,0.00,VWS V14.01,2013-07-15 18:39:00,
2013-07-15 12:44:00,67.1,50.4,29.83,SE,131,0.0,0.0,55,0.00,,---,0.00,VWS V14.01,2013-07-15 18:44:00,
2013-07-15 12:49:00,67.0,50.3,29.83,SE,131,0.0,0.0,55,0.00,,---,0.00,VWS V14.01,2013-07-15 18:49:00,
2013-07-15 12:54:00,67.1,49.9,29.83,SE,130,1.0,3.0,54,0.00,,---,0.00,VWS V14.01,2013-07-15 18:54:00,
2013-07-15 12:59:00,67.3,52.5,29.83,East,83,5.0,5.0,59,0.00,,---,0.00,VWS V14.01,2013-07-15 18:59:00,
2013-07-15 13:04:00,66.8,50.1,29.83,NNE,28,5.0,6.0,55,0.00,,---,0.00,VWS V14.01,2013-07-15 19:04:00,
2013-07-15 13:09:00,66.1,53.2,29.83,NE,35,7.0,7.0,63,0.00,,---,0.00,VWS V14.01,2013-07-15 19:09:00,
2013-07-15 13:15:00,64.7,49.6,29.83,NNE,19,12.0,12.0,58,0.00,,---,0.00,VWS V14.01,2013-07-15 19:15:00,
2013-07-15 13:20:00,63.8,49.2,29.83,NNE,27,11.0,16.0,59,0.00,,---,0.00,VWS V14.01,2013-07-15 19:20:00,
2013-07-15 13:25:00,62.8,48.7,29.83,NNE,14,13.0,17.0,60,0.00,,---,0.00,VWS V14.01,2013-07-15 19:25:00,
2013-07-15 13:30:00,61.3,49.9,29.83,NNE,18,11.0,13.0,66,0.00,,---,0.00,VWS V14.01,2013-07-15 19:30:00,
2013-07-15 13:35:00,60.0,49.0,29.83,North,5,6.0,9.0,67,0.00,,---,0.00,VWS V14.01,2013-07-15 19:35:00,
2013-07-15 13:40:00,59.5,50.8,29.84,North,5,1.0,2.0,73,0.00,,---,0.00,VWS V14.01,2013-07-15 19:40:00,
2013-07-15 13:45:00,59.4,52.2,29.84,NNW,341,4.0,4.0,77,0.01,,---,0.01,VWS V14.01,2013-07-15 19:45:00,
2013-07-15 13:50:00,59.3,52.5,29.84,NNW,341,5.0,5.0,78,0.01,,---,0.01,VWS V14.01,2013-07-15 19:50:00,
2013-07-15 13:55:00,59.1,52.9,29.83,WNW,292,3.0,4.0,80,0.01,,---,0.01,VWS V14.01,2013-07-15 19:55:00,
2013-07-15 14:01:00,59.0,53.2,29.83,WNW,292,3.0,3.0,81,0.01,,---,0.01,VWS V14.01,2013-07-15 20:01:00,
2013-07-15 14:06:00,58.7,52.9,29.83,WNW,292,1.0,4.0,81,0.01,,---,0.01,VWS V14.01,2013-07-15 20:06:00,
2013-07-15 14:11:00,58.4,52.9,29.82,WNW,292,3.0,3.0,82,0.01,,---,0.01,VWS V14.01,2013-07-15 20:11:00,
2013-07-15 14:16:00,58.3,52.8,29.82,WNW,292,0.0,0.0,82,0.01,,---,0.01,VWS V14.01,2013-07-15 20:16:00,
2013-07-15 14:21:00,58.4,53.3,29.82,WNW,292,0.0,2.0,83,0.01,,---,0.01,VWS V14.01,2013-07-15 20:21:00,
2013-07-15 14:26:00,58.8,54.0,29.81,WNW,292,0.0,0.0,84,0.01,,---,0.01,VWS V14.01,2013-07-15 20:26:00,
2013-07-15 14:32:00,59.3,53.8,29.81,WNW,292,0.0,0.0,82,0.01,,---,0.01,VWS V14.01,2013-07-15 20:32:00,
2013-07-15 14:37:00,59.9,54.7,29.80,WNW,292,0.0,1.0,83,0.01,,---,0.01,VWS V14.01,2013-07-15 20:37:00,
2013-07-15 14:42:00,61.1,51.6,29.80,WNW,292,4.0,4.0,71,0.00,,---,0.01,VWS V14.01,2013-07-15 20:42:00,
2013-07-15 14:47:00,63.2,55.2,29.80,WNW,292,0.0,0.0,75,0.00,,---,0.01,VWS V14.01,2013-07-15 20:47:00,
2013-07-15 14:52:00,65.0,53.4,29.80,West,275,4.0,6.0,66,0.00,,---,0.01,VWS V14.01,2013-07-15 20:52:00,
2013-07-15 14:57:00,64.8,51.9,29.80,West,271,0.0,2.0,63,0.00,,---,0.01,VWS V14.01,2013-07-15 20:57:00,
2013-07-15 15:02:00,66.1,54.8,29.80,SSW,209,5.0,7.0,67,0.00,,---,0.01,VWS V14.01,2013-07-15 21:02:00,
2013-07-15 15:07:00,65.8,52.9,29.80,SE,132,4.0,5.0,63,0.00,,---,0.01,VWS V14.01,2013-07-15 21:07:00,
2013-07-15 15:12:00,65.7,51.5,29.79,South,172,5.0,5.0,60,0.00,,---,0.01,VWS V14.01,2013-07-15 21:12:00,
2013-07-15 15:18:00,66.8,52.9,29.79,SSE,148,5.0,5.0,61,0.00,,---,0.01,VWS V14.01,2013-07-15 21:18:00,
2013-07-15 15:23:00,67.5,51.8,29.78,SSE,162,5.0,6.0,57,0.00,,---,0.01,VWS V14.01,2013-07-15 21:23:00,
2013-07-15 15:28:00,67.6,51.8,29.78,SSE,150,7.0,9.0,57,0.00,,---,0.01,VWS V14.01,2013-07-15 21:28:00,
2013-07-15 15:33:00,68.1,53.2,29.78,SE,137,2.0,4.0,59,0.00,,---,0.01,VWS V14.01,2013-07-15 21:33:00,
2013-07-15 15:38:00,68.4,51.6,29.78,SSE,152,3.0,4.0,55,0.00,,---,0.01,VWS V14.01,2013-07-15 21:38:00,
2013-07-15 15:44:00,67.7,52.9,29.78,SE,132,10.0,10.0,59,0.00,,---,0.01,VWS V14.01,2013-07-15 21:44:00,
2013-07-15 15:49:00,67.8,51.5,29.78,ESE,121,10.0,11.0,56,0.00,,---,0.01,VWS V14.01,2013-07-15 21:49:00,
2013-07-15 15:54:00,69.3,51.5,29.78,ESE,116,10.0,10.0,53,0.00,,---,0.01,VWS V14.01,2013-07-15 21:54:00,
2013-07-15 15:59:00,69.7,51.8,29.77,SE,128,10.0,15.0,53,0.00,,---,0.01,VWS V14.01,2013-07-15 21:59:00,
2013-07-15 16:04:00,69.9,52.5,29.77,ESE,117,9.0,15.0,54,0.00,,---,0.01,VWS V14.01,2013-07-15 22:04:00,
2013-07-15 16:09:00,69.8,52.9,29.77,East,82,9.0,12.0,55,0.00,,---,0.01,VWS V14.01,2013-07-15 22:09:00,
2013-07-15 16:14:00,69.7,53.8,29.77,SE,138,10.0,12.0,57,0.00,,---,0.01,VWS V14.01,2013-07-15 22:14:00,
2013-07-15 16:19:00,69.1,53.2,29.77,ESE,120,7.0,9.0,57,0.00,,---,0.01,VWS V14.01,2013-07-15 22:19:00,
2013-07-15 16:24:00,68.3,53.0,29.77,ESE,121,5.0,6.0,58,0.00,,---,0.01,VWS V14.01,2013-07-15 22:24:00,
2013-07-15 16:29:00,67.2,52.9,29.77,ENE,67,5.0,5.0,60,0.00,,---,0.01,VWS V14.01,2013-07-15 22:29:00,
2013-07-15 16:34:00,65.2,48.6,29.77,East,94,9.0,10.0,55,0.00,,---,0.01,VWS V14.01,2013-07-15 22:34:00,
2013-07-15 16:39:00,63.5,50.7,29.78,ENE,64,3.0,4.0,63,0.01,,---,0.02,VWS V14.01,2013-07-15 22:39:00,
2013-07-15 16:44:00,62.8,50.5,29.78,East,96,5.0,6.0,64,0.01,,---,0.02,VWS V14.01,2013-07-15 22:44:00,
2013-07-15 16:49:00,62.0,49.7,29.79,East,86,13.0,13.0,64,0.01,,---,0.02,VWS V14.01,2013-07-15 22:49:00,
2013-07-15 16:54:00,60.4,50.2,29.79,NE,53,22.0,24.0,69,0.02,,---,0.03,VWS V14.01,2013-07-15 22:54:00,
2013-07-15 17:00:00,57.6,48.3,29.81,ENE,78,14.0,24.0,71,0.09,,---,0.10,VWS V14.01,2013-07-15 23:00:00,
2013-07-15 17:05:00,55.1,48.4,29.81,ENE,72,16.0,16.0,78,0.21,,---,0.23,VWS V14.01,2013-07-15 23:05:00,
2013-07-15 17:10:00,54.6,48.2,29.82,ENE,69,5.0,8.0,79,0.27,,---,0.28,VWS V14.01,2013-07-15 23:10:00,
2013-07-15 17:15:00,54.3,48.6,29.83,ESE,109,2.0,7.0,81,0.32,,---,0.33,VWS V14.01,2013-07-15 23:15:00,
2013-07-15 17:20:00,54.1,49.4,29.84,SSE,155,4.0,5.0,84,0.33,,---,0.34,VWS V14.01,2013-07-15 23:20:00,
2013-07-15 17:25:00,53.8,49.7,29.84,SE,132,6.0,11.0,86,0.35,,---,0.36,VWS V14.01,2013-07-15 23:25:00,
2013-07-15 17:30:00,53.7,50.2,29.84,ESE,119,7.0,8.0,88,0.40,,---,0.41,VWS V14.01,2013-07-15 23:30:00,
2013-07-15 17:35:00,53.8,50.3,29.84,SE,134,4.0,6.0,88,0.42,,---,0.43,VWS V14.01,2013-07-15 23:35:00,
2013-07-15 17:40:00,53.8,50.6,29.84,SE,137,3.0,3.0,89,0.41,,---,0.43,VWS V14.01,2013-07-15 23:40:00,
2013-07-15 17:45:00,53.8,50.6,29.84,SE,137,0.0,2.0,89,0.41,,---,0.43,VWS V14.01,2013-07-15 23:45:00,
2013-07-15 17:50:00,53.7,50.5,29.84,SE,137,3.0,3.0,89,0.41,,---,0.43,VWS V14.01,2013-07-15 23:50:00,
2013-07-15 17:55:00,53.8,50.6,29.84,SE,137,0.0,0.0,89,0.41,,---,0.44,VWS V14.01,2013-07-15 23:55:00,
2013-07-15 18:01:00,53.9,51.0,29.84,SE,137,0.0,0.0,90,0.31,,---,0.44,VWS V14.01,2013-07-16 00:01:00,
2013-07-15 18:06:00,54.0,51.1,29.85,West,273,5.0,5.0,90,0.21,,---,0.45,VWS V14.01,2013-07-16 00:06:00,
2013-07-15 18:12:00,54.2,50.7,29.84,West,273,0.0,0.0,88,0.15,,---,0.45,VWS V14.01,2013-07-16 00:12:00,
2013-07-15 18:17:00,54.4,51.2,29.85,WNW,284,0.0,2.0,89,0.12,,---,0.45,VWS V14.01,2013-07-16 00:17:00,
2013-07-15 18:22:00,54.6,51.7,29.84,SW,219,6.0,6.0,90,0.11,,---,0.45,VWS V14.01,2013-07-16 00:22:00,
2013-07-15 18:27:00,54.5,51.9,29.84,SW,234,4.0,6.0,91,0.08,,---,0.45,VWS V14.01,2013-07-16 00:27:00,
2013-07-15 18:32:00,54.4,51.5,29.84,West,271,0.0,0.0,90,0.03,,---,0.45,VWS V14.01,2013-07-16 00:32:00,
2013-07-15 18:38:00,54.4,51.8,29.84,West,272,0.0,0.0,91,0.02,,---,0.45,VWS V14.01,2013-07-16 00:38:00,
2013-07-15 18:43:00,54.4,51.8,29.83,West,274,6.0,6.0,91,0.02,,---,0.45,VWS V14.01,2013-07-16 00:43:00,
2013-07-15 18:48:00,54.4,51.8,29.83,NNW,348,7.0,8.0,91,0.02,,---,0.45,VWS V14.01,2013-07-16 00:48:00,
2013-07-15 18:53:00,54.3,51.4,29.83,NNW,348,6.0,8.0,90,0.02,,---,0.45,VWS V14.01,2013-07-16 00:53:00,
2013-07-15 18:58:00,54.3,51.1,29.83,North,349,6.0,7.0,89,0.01,,---,0.45,VWS V14.01,2013-07-16 00:58:00,
2013-07-15 19:03:00,54.4,51.2,29.84,North,349,5.0,5.0,89,0.01,,---,0.45,VWS V14.01,2013-07-16 01:03:00,
2013-07-15 19:08:00,54.4,51.2,29.84,North,350,6.0,8.0,89,0.00,,---,0.45,VWS V14.01,2013-07-16 01:08:00,
2013-07-15 19:13:00,54.4,51.2,29.84,North,351,4.0,5.0,89,0.00,,---,0.45,VWS V14.01,2013-07-16 01:13:00,
2013-07-15 19:19:00,54.5,51.3,29.84,North,351,0.0,0.0,89,0.00,,---,0.45,VWS V14.01,2013-07-16 01:19:00,
2013-07-15 19:24:00,54.6,51.4,29.85,NNW,348,0.0,3.0,89,0.00,,---,0.45,VWS V14.01,2013-07-16 01:24:00,
2013-07-15 19:29:00,54.6,51.7,29.85,SW,220,3.0,4.0,90,0.00,,---,0.45,VWS V14.01,2013-07-16 01:29:00,
2013-07-15 19:35:00,54.5,51.6,29.85,ESE,113,3.0,3.0,90,0.00,,---,0.45,VWS V14.01,2013-07-16 01:35:00,
2013-07-15 19:40:00,54.4,51.5,29.85,ESE,113,1.0,1.0,90,0.00,,---,0.45,VWS V14.01,2013-07-16 01:40:00,
2013-07-15 19:45:00,54.4,51.5,29.85,ESE,113,0.0,0.0,90,0.00,,---,0.45,VWS V14.01,2013-07-16 01:45:00,
2013-07-15 19:50:00,54.3,51.4,29.85,ESE,113,0.0,0.0,90,0.00,,---,0.45,VWS V14.01,2013-07-16 01:50:00,
2013-07-15 19:55:00,54.2,51.3,29.85,ESE,113,3.0,3.0,90,0.00,,---,0.45,VWS V14.01,2013-07-16 01:55:00,
2013-07-15 20:00:00,53.9,51.0,29.85,ESE,113,3.0,4.0,90,0.00,,---,0.45,VWS V14.01,2013-07-16 02:00:00,
2013-07-15 20:05:00,53.6,50.7,29.86,ESE,113,0.0,1.0,90,0.00,,---,0.45,VWS V14.01,2013-07-16 02:05:00,
2013-07-15 20:10:00,53.4,50.8,29.86,ESE,113,0.0,0.0,91,0.00,,---,0.45,VWS V14.01,2013-07-16 02:10:00,
2013-07-15 20:16:00,53.2,50.7,29.86,ESE,113,4.0,5.0,91,0.00,,---,0.45,VWS V14.01,2013-07-16 02:16:00,
2013-07-15 20:21:00,52.8,50.0,29.86,ESE,113,2.0,3.0,90,0.00,,---,0.45,VWS V14.01,2013-07-16 02:21:00,
2013-07-15 20:26:00,52.6,50.0,29.87,ESE,113,0.0,0.0,91,0.00,,---,0.45,VWS V14.01,2013-07-16 02:26:00,
2013-07-15 20:31:00,52.6,50.0,29.87,ESE,113,0.0,0.0,91,0.00,,---,0.45,VWS V14.01,2013-07-16 02:31:00,
2013-07-15 20:36:00,52.6,50.0,29.87,ESE,113,0.0,0.0,91,0.00,,---,0.45,VWS V14.01,2013-07-16 02:36:00,
2013-07-15 20:41:00,52.4,49.8,29.87,ESE,113,0.0,0.0,91,0.00,,---,0.45,VWS V14.01,2013-07-16 02:41:00,
2013-07-15 20:47:00,52.3,50.0,29.87,ESE,113,4.0,5.0,92,0.00,,---,0.45,VWS V14.01,2013-07-16 02:47:00,
2013-07-15 20:52:00,52.0,49.5,29.88,ESE,113,3.0,4.0,91,0.00,,---,0.45,VWS V14.01,2013-07-16 02:52:00,
2013-07-15 20:57:00,51.6,49.1,29.88,NE,49,4.0,5.0,91,0.00,,---,0.45,VWS V14.01,2013-07-16 02:57:00,
2013-07-15 21:02:00,51.6,49.4,29.89,NE,49,4.0,4.0,92,0.00,,---,0.45,VWS V14.01,2013-07-16 03:02:00,
2013-07-15 21:08:00,51.5,49.3,29.89,NE,49,3.0,3.0,92,0.00,,---,0.45,VWS V14.01,2013-07-16 03:08:00,
2013-07-15 21:13:00,51.4,49.2,29.89,NE,49,0.0,0.0,92,0.00,,---,0.45,VWS V14.01,2013-07-16 03:13:00,
2013-07-15 21:18:00,51.3,49.1,29.90,NE,49,0.0,0.0,92,0.00,,---,0.45,VWS V14.01,2013-07-16 03:18:00,
2013-07-15 21:23:00,51.3,49.1,29.90,NE,49,2.0,3.0,92,0.00,,---,0.45,VWS V14.01,2013-07-16 03:23:00,
2013-07-15 21:28:00,51.1,48.9,29.90,NE,49,6.0,6.0,92,0.00,,---,0.45,VWS V14.01,2013-07-16 03:28:00,
2013-07-15 21:33:00,50.9,48.7,29.90,NE,48,5.0,5.0,92,0.00,,---,0.45,VWS V14.01,2013-07-16 03:33:00,
2013-07-15 21:38:00,50.7,48.5,29.91,North,350,3.0,3.0,92,0.00,,---,0.45,VWS V14.01,2013-07-16 03:38:00,
2013-07-15 21:43:00,50.5,48.3,29.91,NNW,336,6.0,7.0,92,0.00,,---,0.45,VWS V14.01,2013-07-16 03:43:00,
2013-07-15 21:48:00,50.2,48.0,29.91,NNW,338,3.0,5.0,92,0.00,,---,0.45,VWS V14.01,2013-07-16 03:48:00,
2013-07-15 21:53:00,50.0,47.8,29.91,NNW,338,0.0,0.0,92,0.00,,---,0.45,VWS V14.01,2013-07-16 03:53:00,
2013-07-15 21:58:00,49.9,47.7,29.92,NNW,338,5.0,5.0,92,0.00,,---,0.45,VWS V14.01,2013-07-16 03:58:00,
2013-07-15 22:01:00,49.8,47.9,29.92,NNW,338,4.0,4.0,93,0.00,,---,0.45,VWS V14.01,2013-07-16 04:01:00,
2013-07-15 22:02:00,49.8,47.9,29.92,NNW,338,0.0,0.0,93,0.00,,---,0.45,VWS V14.01,2013-07-16 04:02:00,
2013-07-15 22:07:00,49.9,48.0,29.92,NNW,338,0.0,0.0,93,0.00,,---,0.45,VWS V14.01,2013-07-16 04:07:00,
2013-07-15 22:12:00,49.9,48.0,29.92,NNW,338,4.0,5.0,93,0.00,,---,0.45,VWS V14.01,2013-07-16 04:12:00,
2013-07-15 22:17:00,49.5,47.6,29.92,NNW,338,6.0,7.0,93,0.00,,---,0.45,VWS V14.01,2013-07-16 04:17:00,
2013-07-15 22:22:00,49.4,47.5,29.92,NNW,338,6.0,6.0,93,0.00,,---,0.45,VWS V14.01,2013-07-16 04:22:00,
2013-07-15 22:27:00,49.4,47.5,29.92,NNW,333,4.0,5.0,93,0.00,,---,0.45,VWS V14.01,2013-07-16 04:27:00,
2013-07-15 22:32:00,49.4,47.5,29.92,NNW,333,5.0,5.0,93,0.00,,---,0.45,VWS V14.01,2013-07-16 04:32:00,
2013-07-15 22:37:00,49.4,47.5,29.92,NNW,332,7.0,7.0,93,0.00,,---,0.45,VWS V14.01,2013-07-16 04:37:00,
2013-07-15 22:42:00,49.3,47.4,29.92,NNW,331,4.0,5.0,93,0.00,,---,0.45,VWS V14.01,2013-07-16 04:42:00,
2013-07-15 22:47:00,49.3,47.4,29.92,NNW,331,4.0,4.0,93,0.00,,---,0.45,VWS V14.01,2013-07-16 04:47:00,
2013-07-15 22:52:00,49.0,47.1,29.92,NNW,338,7.0,7.0,93,0.00,,---,0.45,VWS V14.01,2013-07-16 04:52:00,
2013-07-15 22:57:00,48.9,47.0,29.93,NNW,341,7.0,8.0,93,0.00,,---,0.45,VWS V14.01,2013-07-16 04:57:00,
2013-07-15 23:02:00,49.0,47.1,29.93,NNW,338,5.0,6.0,93,0.00,,---,0.45,VWS V14.01,2013-07-16 05:02:00,
2013-07-15 23:07:00,49.0,47.1,29.93,NNW,338,3.0,4.0,93,0.00,,---,0.45,VWS V14.01,2013-07-16 05:07:00,
2013-07-15 23:13:00,48.9,47.0,29.93,NNW,338,4.0,5.0,93,0.00,,---,0.45,VWS V14.01,2013-07-16 05:13:00,
2013-07-15 23:18:00,48.8,46.9,29.93,NNW,338,3.0,6.0,93,0.00,,---,0.45,VWS V14.01,2013-07-16 05:18:00,
2013-07-15 23:23:00,48.9,47.2,29.93,NNW,338,0.0,0.0,94,0.00,,---,0.45,VWS V14.01,2013-07-16 05:23:00,
2013-07-15 23:28:00,49.0,47.3,29.93,NNW,338,0.0,0.0,94,0.00,,---,0.45,VWS V14.01,2013-07-16 05:28:00,
2013-07-15 23:33:00,49.1,47.5,29.93,NNW,338,3.0,3.0,94,0.00,,---,0.45,VWS V14.01,2013-07-16 05:33:00,
2013-07-15 23:38:00,48.8,46.9,29.93,NNW,338,1.0,3.0,93,0.00,,---,0.45,VWS V14.01,2013-07-16 05:38:00,
2013-07-15 23:43:00,48.7,47.0,29.93,NNW,338,2.0,3.0,94,0.00,,---,0.45,VWS V14.01,2013-07-16 05:43:00,
2013-07-15 23:48:00,48.9,47.2,29.94,NNW,338,2.0,4.0,94,0.00,,---,0.45,VWS V14.01,2013-07-16 05:48:00,
2013-07-15 23:53:00,49.0,47.3,29.94,NNW,338,4.0,4.0,94,0.00,,---,0.45,VWS V14.01,2013-07-16 05:53:00,
2013-07-15 23:58:00,48.7,46.8,29.95,NNW,338,2.0,2.0,93,0.00,,---,0.45,VWS V14.01,2013-07-16 05:58:00,